Вернуться в каталог

COSMOS 2251 DEB

АктивенLEO
NORAD 37973·DEBRIS·🇷🇺 Russia

Запущен Jun 16, 1993 с Plesetsk Cosmodrome

Loading…

Ближайшие Пролёты (ближайшие 24 часа)

TLE

УстаревающийSource: Space-Track

Эпоха: Sep 12, 2026, 02:22 UTC

1 37973U 93036BPY 26255.09902512  .00000891  00000-0  27315-3 0  9997
2 37973  74.0262 156.3761 0037129 166.6355 193.5795 14.42748396689308

Отслеживайте COSMOS 2251 DEB в реальном времени с AllMySat

Download on the App Store